Location: Banios
(43.0451°N, 0.2335°E)
Time: 12:12:10
(UTC+00:00)

Envisat - Pass Details

Date: 13 December 2021
Orbit: 764 x 766 km, 98.2° (Epoch: 20 January)

Event Time Altitude Azimuth Distance (km) Brightness Sun altitude
Rises 06:36:55 0° 355° (N) 3,242 6.0 -8.1°
Reaches altitude 10° 06:40:17 10° 332° (NNW) 2,310 5.0 -7.6°
Maximum altitude 06:42:53 14° 301° (WNW) 2,026 4.5 -7.1°
Drops below altitude 10° 06:45:28 10° 270° (W) 2,302 4.9 -6.7°
Sets 06:48:49 0° 246° (WSW) 3,223 5.8 -6.2°
